| time (UTC) | temp F | wind direction | speed MPH | gust MPH | rain 1hr in | rain 24hr in | rain mn in | humidity % | barometer mb |
| 20260904224520 | 70 | 289 | 0.0 | 1.0 | 0.00 | 0.00 | 0.00 | 68 | 1009.7 |
| 20260904221539 | 72 | 289 | 0.0 | 1.0 | 0.00 | 0.00 | 0.00 | 67 | 1009.4 |
| 20260904220136 | 73 | 316 | 0.0 | 0.0 | 0.00 | 0.00 | 0.00 | 66 | 1009.5 |
| 20260904214553 | 73 | 316 | 0.0 | 3.0 | 0.00 | 0.00 | 0.00 | 63 | 1009.4 |
| 20260904213026 | 75 | 234 | 0.0 | 5.0 | 0.00 | 0.00 | 0.00 | 60 | 1009.3 |
| 20260904211603 | 76 | 309 | 0.0 | 4.0 | 0.00 | 0.00 | 0.00 | 59 | 1009.5 |
| 20260904210025 | 77 | 130 | 0.0 | 2.0 | 0.00 | 0.00 | 0.00 | 58 | 1009.7 |
| 20260904204607 | 78 | 259 | 1.0 | 4.0 | 0.00 | 0.00 | 0.00 | 55 | 1009.7 |
| 20260904203052 | 78 | 323 | 0.0 | 4.0 | 0.00 | 0.00 | 0.00 | 58 | 1009.6 |
| 20260904201513 | 77 | 213 | 0.0 | 4.0 | 0.00 | 0.00 | 0.00 | 57 | 1009.7 |
| 20260904200124 | 78 | 309 | 0.0 | 3.0 | 0.00 | 0.00 | 0.00 | 53 | 1009.8 |
| 20260904194527 | 78 | 317 | 0.0 | 3.0 | 0.00 | 0.00 | 0.00 | 54 | 1009.8 |
| 20260904193119 | 79 | 217 | 0.0 | 3.0 | 0.00 | 0.00 | 0.00 | 52 | 1009.8 |
| 20260904191542 | 79 | 280 | 0.0 | 6.0 | 0.00 | 0.00 | 0.00 | 52 | 1009.8 |
| 20260904190131 | 79 | 286 | 0.0 | 4.0 | 0.00 | 0.00 | 0.00 | 50 | 1009.9 |
| 20260904184555 | 78 | 311 | 0.0 | 6.0 | 0.00 | 0.00 | 0.00 | 51 | 1009.8 |
| 20260904183012 | 78 | 5 | 1.0 | 4.0 | 0.00 | 0.00 | 0.00 | 50 | 1010.1 |
| 20260904181611 | 78 | 317 | 0.0 | 4.0 | 0.00 | 0.00 | 0.00 | 51 | 1010.3 |
| 20260904180026 | 78 | 271 | 1.0 | 5.0 | 0.00 | 0.00 | 0.00 | 50 | 1010.2 |
| 20260904174618 | 78 | 301 | 0.0 | 4.0 | 0.00 | 0.00 | 0.00 | 54 | 1010.1 |
| 20260904173001 | 79 | 248 | 0.0 | 3.0 | 0.00 | 0.00 | 0.00 | 53 | 1010.1 |
| 20260904171607 | 77 | 284 | 0.0 | 5.0 | 0.00 | 0.00 | 0.00 | 54 | 1010.0 |
| 20260904164605 | 77 | 284 | 0.0 | 8.0 | 0.00 | 0.00 | 0.00 | 56 | 1010.2 |
| 20260904163029 | 76 | 316 | 0.0 | 5.0 | 0.00 | 0.00 | 0.00 | 60 | 1010.4 |
| 20260904161617 | 75 | 296 | 0.0 | 4.0 | 0.00 | 0.00 | 0.00 | 61 | 1010.4 |
| 20260904160036 | 76 | 276 | 1.0 | 6.0 | 0.00 | 0.00 | 0.00 | 61 | 1010.5 |
| 20260904154632 | 76 | 285 | 0.0 | 3.0 | 0.00 | 0.00 | 0.00 | 61 | 1010.9 |
| 20260904153046 | 75 | 311 | 0.0 | 4.0 | 0.00 | 0.00 | 0.00 | 63 | 1011.0 |
| 20260904151501 | 73 | 267 | 0.0 | 3.0 | 0.00 | 0.00 | 0.00 | 67 | 1010.9 |
| 20260904150106 | 73 | 90 | 0.0 | 6.0 | 0.00 | 0.00 | 0.00 | 67 | 1011.1 |
| 20260904144515 | 73 | 242 | 1.0 | 5.0 | 0.00 | 0.00 | 0.00 | 66 | 1011.0 |
| 20260904143113 | 73 | 346 | 0.0 | 3.0 | 0.00 | 0.00 | 0.00 | 67 | 1011.0 |
| 20260904141528 | 73 | 302 | 1.0 | 4.0 | 0.00 | 0.00 | 0.00 | 66 | 1011.1 |
| 20260904140115 | 72 | 5 | 0.0 | 3.0 | 0.00 | 0.00 | 0.00 | 65 | 1010.9 |
| 20260904133124 | 70 | 279 | 0.0 | 5.0 | 0.00 | 0.00 | 0.00 | 54 | 1011.3 |
| 20260904131549 | 69 | 325 | 0.0 | 4.0 | 0.00 | 0.00 | 0.00 | 46 | 1011.2 |
| 20260904130029 | 68 | 303 | 0.0 | 4.0 | 0.00 | 0.00 | 0.00 | 30 | 1011.4 |
| 20260904124611 | 67 | 270 | 0.0 | 4.0 | 0.00 | 0.00 | 0.00 | 16 | 1011.3 |
| 20260904123025 | 66 | 277 | 0.0 | 2.0 | 0.00 | 0.00 | 0.00 | 7 | 1011.1 |
| 20260904121618 | 65 | 309 | 0.0 | 5.0 | 0.00 | 0.00 | 0.00 | 1 | 1011.2 |
| 20260904120037 | 65 | 309 | 0.0 | 0.0 | 0.00 | 0.00 | 0.00 | 1 | 1011.0 |
| 20260904114632 | 64 | 309 | 0.0 | 3.0 | 0.00 | 0.01 | 0.00 | 1 | 1011.0 |
| 20260904113052 | 63 | 286 | 0.0 | 1.0 | 0.00 | 0.01 | 0.00 | 1 | 1010.8 |
| 20260904111503 | 63 | 200 | 0.0 | 0.0 | 0.00 | 0.01 | 0.00 | 1 | 1010.6 |
| 20260904110053 | 63 | 200 | 0.0 | 0.0 | 0.00 | 0.01 | 0.00 | 1 | 1010.5 |
| 20260904104517 | 63 | 200 | 0.0 | 0.0 | 0.00 | 0.01 | 0.00 | 1 | 1010.3 |
| 20260904101541 | 63 | 200 | 0.0 | 0.0 | 0.00 | 0.01 | 0.00 | 1 | 1010.5 |
| 20260904100133 | 63 | 200 | 0.0 | 0.0 | 0.00 | 0.01 | 0.00 | 1 | 1010.4 |
| 20260904094602 | 64 | 200 | 0.0 | 0.0 | 0.00 | 0.01 | 0.00 | 1 | 1010.4 |
| 20260904093018 | 64 | 200 | 0.0 | 0.0 | 0.00 | 0.01 | 0.00 | 1 | 1010.4 |
| 20260904091610 | 65 | 200 | 0.0 | 0.0 | 0.00 | 0.01 | 0.00 | 1 | 1010.3 |
| 20260904090022 | 65 | 200 | 0.0 | 0.0 | 0.00 | 0.01 | 0.00 | 1 | 1010.4 |
| 20260904084619 | 65 | 200 | 0.0 | 0.0 | 0.00 | 0.01 | 0.00 | 1 | 1010.1 |
| 20260904083042 | 65 | 200 | 0.0 | 0.0 | 0.00 | 0.01 | 0.00 | 1 | 1010.1 |
| 20260904081628 | 66 | 200 | 0.0 | 0.0 | 0.00 | 0.01 | 0.00 | 1 | 1010.0 |
| 20260904080045 | 66 | 200 | 0.0 | 0.0 | 0.00 | 0.01 | 0.00 | 1 | 1010.0 |
| 20260904074507 | 66 | 200 | 0.0 | 0.0 | 0.00 | 0.04 | 0.00 | 1 | 1010.2 |
| 20260904073103 | 65 | 200 | 0.0 | 0.0 | 0.00 | 0.04 | 0.00 | 1 | 1010.2 |
| 20260904071655 | 66 | 200 | 0.0 | 0.0 | 0.00 | 0.04 | 0.00 | 1 | 1010.4 |
| 20260904070118 | 66 | 200 | 0.0 | 0.0 | 0.00 | 0.04 | 0.00 | 1 | 1010.8 |
| 20260904064525 | 66 | 200 | 0.0 | 0.0 | 0.00 | 0.10 | 0.00 | 1 | 1010.9 |
| 20260904063124 | 66 | 200 | 0.0 | 0.0 | 0.00 | 0.10 | 0.00 | 1 | 1011.0 |
| 20260904061542 | 66 | 200 | 0.0 | 0.0 | 0.00 | 0.10 | 0.00 | 1 | 1011.0 |
| 20260904060135 | 67 | 200 | 0.0 | 0.0 | 0.00 | 0.10 | 0.00 | 1 | 1011.1 |
| 20260904054553 | 67 | 200 | 0.0 | 0.0 | 0.00 | 0.13 | 0.00 | 1 | 1011.2 |
| 20260904053018 | 67 | 200 | 0.0 | 0.0 | 0.00 | 0.13 | 0.00 | 1 | 1011.3 |
| 20260904051609 | 67 | 200 | 0.0 | 0.0 | 0.00 | 0.13 | 0.00 | 1 | 1011.4 |
| 20260904050025 | 67 | 200 | 0.0 | 0.0 | 0.00 | 0.13 | 0.00 | 1 | 1011.7 |
| 20260904044617 | 68 | 200 | 0.0 | 0.0 | 0.00 | 0.14 | 0.00 | 1 | 1011.9 |
| 20260904043043 | 68 | 200 | 0.0 | 0.0 | 0.00 | 0.14 | 0.00 | 1 | 1012.0 |
| 20260904041631 | 68 | 200 | 0.0 | 0.0 | 0.00 | 0.14 | 0.00 | 1 | 1012.0 |
| 20260904034531 | 68 | 200 | 0.0 | 0.0 | 0.00 | 0.14 | 0.14 | 1 | 1012.2 |
| 20260904033125 | 68 | 200 | 0.0 | 0.0 | 0.00 | 0.14 | 0.14 | 1 | 1012.4 |
| 20260904031546 | 68 | 200 | 0.0 | 0.0 | 0.00 | 0.14 | 0.14 | 1 | 1012.4 |
| 20260904030006 | 68 | 200 | 0.0 | 0.0 | 0.00 | 0.14 | 0.14 | 1 | 1012.4 |
| 20260904024600 | 68 | 200 | 0.0 | 0.0 | 0.00 | 0.14 | 0.14 | 1 | 1012.8 |
| 20260904023020 | 68 | 200 | 0.0 | 0.0 | 0.00 | 0.14 | 0.14 | 1 | 1012.7 |
| 20260904021613 | 68 | 200 | 0.0 | 0.0 | 0.00 | 0.14 | 0.14 | 1 | 1012.8 |
| 20260904020030 | 68 | 200 | 0.0 | 0.0 | 0.00 | 0.14 | 0.14 | 1 | 1012.9 |
| 20260904013044 | 68 | 200 | 0.0 | 0.0 | 0.00 | 0.14 | 0.14 | 1 | 1013.0 |
| 20260904011632 | 69 | 200 | 0.0 | 0.0 | 0.00 | 0.14 | 0.14 | 1 | 1012.9 |
| 20260904010052 | 69 | 200 | 0.0 | 0.0 | 0.00 | 0.14 | 0.14 | 1 | 1012.7 |
| 20260904004506 | 69 | 200 | 0.0 | 0.0 | 0.00 | 0.14 | 0.14 | 1 | 1012.7 |
| 20260904003057 | 69 | 200 | 0.0 | 0.0 | 0.00 | 0.14 | 0.14 | 1 | 1012.7 |
| 20260904001516 | 70 | 200 | 0.0 | 1.0 | 0.00 | 0.14 | 0.14 | 1 | 1012.6 |
| 20260904000124 | 70 | 200 | 0.0 | 1.0 | 0.00 | 0.14 | 0.14 | 8 | 1012.3 |
| 20260903234520 | 71 | 200 | 0.0 | 0.0 | 0.00 | 0.14 | 0.14 | 18 | 1011.8 |
| 20260903233114 | 72 | 200 | 0.0 | 0.0 | 0.00 | 0.14 | 0.14 | 19 | 1011.9 |
| 20260903231536 | 72 | 200 | 0.0 | 0.0 | 0.00 | 0.14 | 0.14 | 23 | 1012.0 |
| 20260903230124 | 73 | 200 | 0.0 | 1.0 | 0.00 | 0.14 | 0.14 | 36 | 1011.9 |